Volver al catálogo

STARLINK-32076

ActivoComunicacionesVLEO
NORAD 60350·PAYLOAD·🇺🇸 United States

Lanzado Aug 2, 2024 desde Cape Canaveral Space Force Station

Loading…

Próximos Pases (próximas 24 horas)

TLE

ActualizadoSource: CelesTrak SupGP

Época: Sep 14, 2026, 14:40 UTC

1 60350C 24136X   26257.61159722 -.00005967  00000+0 -19179-3 0  2570
2 60350  53.1564 276.5721 0001332  85.8321 195.9216 15.31721734    14

Sigue STARLINK-32076 en tiempo real con AllMySat

Download on the App Store